Zurück zum Katalog

USA 353

AktivMilitärGEO
NORAD 59453·PAYLOAD·🇺🇸 United States

Gestartet Apr 9, 2024 von Cape Canaveral Space Force Station

Loading…

TLE

AktuellSource: Mike McCants

Epoche: Sep 14, 2026, 13:29 UTC

1 59453U 24067A   26257.56200155  .00000000  00000-0  00000-0 0    04
2 59453   6.0340 296.0081 0052884 185.5108 174.4437  1.00274000  3830

Verfolge USA 353 in Echtzeit mit AllMySat

Download on the App Store